Flag for Germany Weather past 2 weeks in Kiel, Schleswig-Holstein, Germany

Now
54 °F

Overcast.


Feels Like: 53 °F
Forecast: 46 / 60 °F
Wind: 5 mph from West

Location: Kiel-Holtenau

Current Time: May 23, 2015 at 1:17:16 AM

Latest Report: May 23, 2015 at 12:00 AM


Visibility: 19 mi

Pressure: 30.15 "Hg

Humidity: 75%

Dew point: 46 °F

Location of KielLocation

Historic Weather in Kiel — Graph

°F

Kiel temperature yesterday

Maximum temperature yesterday: 66 °F (at 6:00 PM)
Minimum temperature yesterday: 45 °F (at 4:00 AM)
Average temperature yesterday: 55 °F

Past Weeks' High & Low Weather Summary

 TemperatureHumidityPressure
High74 °F (May 11, 6:00 PM)99% (May 18, 9:00 PM)30.34 "Hg (May 18, 9:00 PM)
Low39 °F (May 8, 6:00 AM)38% (May 11, 6:00 PM)29.54 "Hg (May 19, 3:00 AM)
Average51 °F78%30.00 "Hg
* Reported Midnight between May 7 and May 8 — Midnight between May 22 and May 23, Kiel, Weather by CustomWeather, © 2015

Note: Actual official high and low records may vary slightly from our data, if they occured in-between our weather recording intervals... More about our weather records

Advertising

Kiel weather history for previous 24 hours

 ConditionsComfort  
Time TempWeatherWind HumidityBarometerVisibility
12:00 AM
Sat, May 23
54 °FOvercast.5 mph75%30.15 "Hg19 mi
11:00 PM
Fri, May 22
55 °FOvercast.3 mph65%30.15 "Hg25 mi
10:00 PM57 °FOvercast.5 mph61%30.16 "Hg25 mi
9:00 PM59 °FPassing clouds.3 mph70%30.15 "Hg12 mi
8:00 PM62 °FSunny.5 mph64%30.14 "Hg12 mi
7:00 PM64 °FSunny.6 mph59%30.15 "Hg19 mi
6:00 PM66 °FScattered clouds.6 mph52%30.16 "Hg17 mi
5:00 PM65 °FScattered clouds.6 mph47%30.18 "Hg12 mi
4:00 PM65 °FPartly sunny.7 mph49%30.19 "Hg17 mi
3:00 PM64 °FOvercast.5 mph55%30.21 "Hg17 mi
2:00 PM62 °FScattered clouds.5 mph60%30.22 "Hg19 mi
1:00 PM61 °FPartly sunny.6 mph62%30.24 "Hg15 mi
12:00 PM59 °FPartly sunny.3 mph65%30.25 "Hg14 mi
11:00 AM58 °FScattered clouds.5 mph66%30.26 "Hg7 mi
10:00 AM55 °FOvercast.3 mph71%30.27 "Hg17 mi
9:00 AM53 °FOvercast.2 mph78%30.27 "Hg12 mi
8:00 AM51 °FOvercast.2 mph85%30.28 "Hg12 mi
7:00 AM47 °FOvercast.2 mph93%30.27 "Hg8 mi
6:00 AM47 °FOvercast.2 mph96%30.27 "Hg7 mi
5:00 AM46 °FPassing clouds.2 mph98%30.27 "Hg6 mi
4:00 AM45 °FPassing clouds.2 mph97%30.27 "Hg6 mi
3:00 AM45 °FPassing clouds.2 mph95%30.27 "Hg12 mi
2:00 AM45 °FPassing clouds.2 mph94%30.28 "Hg15 mi
1:00 AM46 °FPassing clouds.2 mph90%30.28 "Hg19 mi
Weather by CustomWeather, © 2015

See weather overviewHow to use our weather pages